sat.trackr.live / text

‹ back to catalog

STARLINK-2717

NORAD 48659 · 2021-044X

PAYLOAD ACTIVE UNKNOWN

§ Identity

Operator
Country
US
Launch date
2021-05-26
Launch site
AFETR
Launch vehicle
Mass (kg)
RCS (m²)

Purposes: comms

External: N2YO · Heavens-Above · Gunter

§ Orbital elements

Epoch: 2026-09-12T16:56:13.204896Z

Period
94.01 min
Inclination
53.1609°
Eccentricity
0.0001289
Mean motion
15.31706057 rev/d
Perigee alt
469.8 km
Apogee alt
471.6 km
Semi-major
6,848.9 km
B*
1.3013e-4
RAAN
323.5320°
Arg perigee
92.7458°
Mean anomaly
267.3691°
Rev number
29,248

§ Raw data

STARLINK-27171 48659U 21044X   26255.70570839  .00003676  00000+0  13013-3 0  99942 48659  53.1609 323.5320 0001289  92.7458 267.3691 15.31706057292485

JSON: /api/v1/satellites/48659 · /tle

For live sub-satellite position, see the globe view (requires WebGL).

§ Visibility from observer

Set your observer location to see the next 7 days of passes ≥ 10°. The values pass through the URL so the page stays shareable.

No JS? Fill the form by hand. The geolocation button needs JavaScript.